This is the latest recevied weather packets stored in our database for station/object SR9WXZ. If no packets are shown the sender has not sent any weather packets the latest 1 day(s).
| Time | Temp. | Humidity | Pressure | Rain* | Wind** | Luminosity | Snow |
|---|---|---|---|---|---|---|---|
| 1777962704 | 13.89° C | 100% | 0 hPa | - | 0.89 m/s, 97° | - | - |
| 1777962404 | 13.33° C | 100% | 0 hPa | - | 0.89 m/s, 97° | - | - |
| 1777962104 | 12.78° C | 100% | 0 hPa | - | 0.89 m/s, 100° | - | - |
| 1777961804 | 11.67° C | 100% | 0 hPa | - | 0.89 m/s, 102° | - | - |
| 1777961504 | 11.67° C | 100% | 0 hPa | - | 0.89 m/s, 102° | - | - |
| 1777961203 | 11.67° C | 100% | 0 hPa | - | 0.89 m/s, 135° | - | - |
| 1777960902 | 11.67° C | 100% | 0 hPa | - | 0.89 m/s, 167° | - | - |
| 1777960601 | 11.67° C | 100% | 0 hPa | - | 0.89 m/s, 171° | - | - |
| 1777960301 | 11.11° C | 100% | 0 hPa | - | 0.89 m/s, 186° | - | - |
| 1777959701 | 11.11° C | 100% | 0 hPa | - | 0.89 m/s, 190° | - | - |
| 1777959401 | 10.56° C | 100% | 0 hPa | - | 0.89 m/s, 190° | - | - |
| 1777959101 | 10.56° C | 100% | 0 hPa | - | 0.89 m/s, 190° | - | - |
| 1777958800 | 10.56° C | 100% | 0 hPa | - | 0.89 m/s, 190° | - | - |
| 1777958500 | 10° C | 100% | 0 hPa | - | 0.45 m/s, 190° | - | - |
| 1777958200 | 10° C | 100% | 0 hPa | - | 0.45 m/s, 193° | - | - |
| 1777957900 | 9.44° C | 100% | 0 hPa | - | 0.89 m/s, 191° | - | - |
| 1777957599 | 9.44° C | 100% | 0 hPa | - | 0.89 m/s, 190° | - | - |
| 1777956999 | 9.44° C | 100% | 0 hPa | - | 0.45 m/s, 190° | - | - |
| 1777956688 | 8.89° C | 100% | 0 hPa | - | 0.89 m/s, 190° | - | - |
| 1777956388 | 8.89° C | 100% | 0 hPa | - | 0.89 m/s, 190° | - | - |
| 1777956087 | 8.89° C | 100% | 0 hPa | - | 0.89 m/s, 190° | - | - |
| 1777955786 | 7.78° C | 100% | 0 hPa | - | 0.89 m/s, 190° | - | - |
| 1777955486 | 7.22° C | 100% | 0 hPa | - | 0.89 m/s, 190° | - | - |
| 1777955186 | 6.11° C | 100% | 0 hPa | - | 0.89 m/s, 190° | - | - |
| 1777954886 | 6.11° C | 100% | 0 hPa | - | 0.89 m/s, 193° | - | - |
* Rain since midnight (hover to see other rain measurements)
** Current wind speed in m/s (hover to see current wind gust speed)